www.pogodaiklimat.ru

Погода и климат >> Архив погоды >> Сейшелы >> Seychelles


АРХИВ ПОГОДЫ в Seychelles

Время (UTC), дата Ветер
(напр.,м/с)
 
Видим.   Явления Облачность Т
(С)
Тd
(С)
f
(%)
Тe
(С)
Тes
(С)
Комфортность P
(гПа)
Po
(гПа)
Тmin
(С)
Tmax
(С)
R
(мм)
S
(см)
00 19.03 ЮЗ 1 20 км 8 баллов +27.2 +24.9 87 +39 +39 очень
душно
1011.5 1012.0
03 19.03 З 1 40 км 6 баллов +26.8 +25.1 90 +39 +39 очень
душно
1012.7 1013.0
06 19.03 СВ 1 40 км 4/0
[]
+30.2 +25.4 76 +44 +58 опасность
перегрева
1014.5 1015.0
09 19.03 СВ 2 40 км 5 баллов +30.9 +25.7 74 +46 +57 опасность
перегрева
1013.0 1013.0
12 19.03 В 1 45 км 9 баллов +30.8 +25.5 73 +45 +46 опасность
перегрева
1011.4 1011.0
15 19.03 ЮВ 1 45 км 9 баллов +28.9 +25.4 81 +42 +42 опасность
перегрева
1011.9 1012.0
18 19.03 Ю 1 30 км 9/0
[]
+28.2 +24.8 82 +40 +40 очень
душно
1012.7 1013.0
21 19.03 ЮЗ 1 30 км 8 баллов +27.4 +24.8 86 +39 +39 очень
душно
1011.5 1012.0
00 20.03 Ю 1 30 км 6 баллов +27.3 +25.2 88 +39 +39 очень
душно
1010.6 1011.0
03 20.03 ЮЗ 1 45 км 6 баллов +27.2 +24.9 87 +39 +39 очень
душно
1011.6 1012.0
06 20.03 СВ 1 45 км 9/0
[]
+29.9 +25.1 75 +43 +53 опасность
перегрева
1013.0 1013.0
09 20.03 СВ 2 40 км 5 баллов +30.6 +24.5 70 +43 +55 опасность
перегрева
1011.6 1012.0
12 20.03 С 1 40 км 1 балл +30.7 +24.7 70 +43 +51 опасность
перегрева
1009.8 1010.0
15 20.03 ЮЗ 1 40 км 3 балла +28.5 +24.0 77 +40 +40 очень
душно
1011.3 1011.0
18 20.03 ЮЗ 1 40 км 3/0
[]
+27.2 +24.0 83 +38 +38 очень
душно
1012.6 1013.0
21 20.03 ЮЗ 1 40 км 1 балл +26.6 +24.0 86 +37 +37 очень
душно
1011.8 1012.0
00 21.03 ЮЗ 1 40 км 1 балл +25.9 +23.6 87 +35 +35 очень
душно
1010.5 1011.0
03 21.03 ЮЗ 1 45 км 1 балл +25.9 +23.7 88 +35 +36 очень
душно
1011.9 1012.0
06 21.03 С 2 45 км 4/0
[]
+29.5 +24.8 76 +42 +55 опасность
перегрева
1013.3 1013.0
09 21.03 С 3 45 км 3 балла +30.9 +25.0 71 +44 +58 опасность
перегрева
1011.4 1011.0
12 21.03 С 3 40 км 4 балла +30.6 +22.9 64 +41 +44 опасность
перегрева
1010.3 1010.0
15 21.03 З 2 45 км 4 балла +28.5 +23.3 73 +38 +38 очень
душно
1011.1 1011.0
18 21.03 З 1 40 км 1/0
[]
+27.0 +23.0 79 +36 +36 очень
душно
1012.5 1013.0
21 21.03 ЮЗ 1 45 км 1 балл +26.2 +23.7 86 +36 +36 очень
душно
1011.3 1011.0
00 22.03 ЮЗ 1 30 км 1 балл +25.7 +23.5 88 +35 +35 очень
душно
1010.0 1010.0
03 22.03 ЮЗ 1 45 км 1 балл +25.8 +23.8 89 +35 +36 очень
душно
1011.7 1012.0
06 22.03 СЗ 2 45 км 5/0
[]
+29.5 +24.2 73 +41 +53 опасность
перегрева
1013.1 1013.0
09 22.03 45 км 4/4 500 м
[Cu med, cong]
+30.5 +23.5 66 1010.5 1011.0
12 22.03 С 2 40 км 3 балла +30.7 +24.6 70 +43 +48 опасность
перегрева
1009.0 1009.0
15 22.03 З 1 40 км 1 балл +28.6 +24.3 78 +40 +40 очень
душно
1010.6 1011.0
18 22.03 ЮЗ 1 40 км 1/0
[]
+27.1 +23.8 82 +37 +37 очень
душно
1012.3 1012.0
00 23.03 ЮЗ 1 40 км 1 балл +26.0 +23.5 86 +35 +35 очень
душно
1010.3 1010.0
03 23.03 ЮЗ 2 40 км 1/1 570 м
[Cu hum Ci sp]
+25.8 +22.8 84 +34 +35 очень
душно
1011.5 1012.0
06 23.03 СВ 1 45 км 1/0
[]
+30.0 +24.7 73 +43 +59 опасность
перегрева
1012.8 1013.0
09 23.03 СВ 2 45 км 1 балл +31.5 +25.3 70 +46 +66 опасность
перегрева
1010.5 1011.0
12 23.03 В 2 45 км 1 балл +31.0 +24.6 69 +44 +51 опасность
перегрева
1009.0 1009.0
15 23.03 Ю 1 45 км 1 балл +28.5 +24.3 78 +40 +40 очень
душно
1010.3 1010.0
18 23.03 ЮЗ 1 30 км 1/0
[]
+27.7 +24.3 82 +39 +39 очень
душно
1012.0 1012.0
21 23.03 ЮЗ 1 30 км 3 балла +27.2 +24.6 86 +39 +39 очень
душно
1010.7 1011.0
00 24.03 ЮЗ 1 30 км 1 балл +26.7 +24.3 87 +37 +37 очень
душно
1009.7 1010.0
03 24.03 ЮЗ 1 40 км 1 балл +26.8 +24.2 86 +37 +38 очень
душно
1010.4 1010.0
06 24.03 СВ 2 45 км 1/0
[]
+30.4 +25.0 73 +44 +59 опасность
перегрева
1012.3 1012.0
09 24.03 С 2 45 км 1 балл +31.5 +24.9 68 +45 +64 опасность
перегрева
1010.3 1010.0
12 24.03 С 2 30 км 1 балл +31.1 +24.6 68 +44 +50 опасность
перегрева
1009.0 1009.0
15 24.03 ЮЗ 1 30 км 4 балла +29.2 +24.0 74 +41 +41 опасность
перегрева
1011.2 1011.0
18 24.03 ЮЗ 1 30 км 1/0
[]
+28.0 +24.4 81 +39 +39 очень
душно
1012.7 1013.0
21 24.03 З 1 30 км 1 балл +27.2 +24.6 86 +39 +39 очень
душно
1011.6 1012.0
00 25.03 З 1 30 км 1 балл +26.8 +24.4 87 +38 +38 очень
душно
1010.3 1010.0
03 25.03 З 1 30 км 1 балл +26.8 +24.4 87 +38 +38 очень
душно
1010.3 1010.0
06 25.03 С 2 45 км 3/0
[]
+31.0 +24.9 70 +44 +57 опасность
перегрева
1012.9 1013.0
09 25.03 С 3 45 км 4 балла +32.2 +25.2 67 +46 +58 опасность
перегрева
1010.9 1011.0
12 25.03 С 3 40 км 5 баллов +30.7 +24.7 70 +43 +46 опасность
перегрева
1009.5 1010.0
15 25.03 З 2 30 км 9 баллов +29.2 +24.6 76 +41 +41 опасность
перегрева
1010.5 1011.0
18 25.03 З 2 30 км 8/0
[]
+28.8 +24.7 79 +41 +41 опасность
перегрева
1012.1 1012.0
21 25.03 З 1 30 км 6 баллов +28.2 +24.8 82 +40 +40 очень
душно
1010.8 1011.0

 

Местоположение метеостанции Seychelles (Сейшелы): широта -4.67 долгота 55.52 высота над уровнем моря 3 м.

В архиве по умолчанию представлена погода в Seychelles за последнюю неделю. Архивные данные за месяц целиком и за предыдущие месяцы, начиная с января 2011 года, Вы можете получить, выбрав интересующий диапазон дат из раскрывающегося списка и нажав кнопку "Ввод!".

Внимание! Время в таблицах - всемирное. Для получения местного времени необходимо прибавить поправку, которая в Seychelles равна 4 ч.

Смотрите также архив погоды в соседних городах и на ближайших метеорологических станциях:

Погода в Agalega (Маврикий) (655 км)
Погода в Antsiranana (Мадагаскар) (1094 км)
Погода в Iles Glorieuses (Реюньон) (1190 км)
Погода в Sambava (Мадагаскар) (1219 км)
Погода в Serge-Frolow (Реюньон) (1243 км)
Погода в Fascene (Мадагаскар) (1244 км)
Погода в Antalaha (Мадагаскар) (1274 км)
Погода в Mogadiscio (Сомали) (1354 км)
Погода в Saint Brandon Saint Raphael (Маврикий) (1385 км)
Погода в Antsohihy (Мадагаскар) (1404 км)

Пояснения к столбцам:

Ветер - указаны скорость ветра в м/с - средняя за 10 мин, порывы в срок и между сроками (в фигурных скобках) и направление, откуда дует ветер: С - северный, СВ - северо-восточный, В - восточный, ЮВ - юго-восточный, Ю - южный, ЮЗ - юго-западный, З - западный, СЗ - северо-западный.
Видимость - горизонтальная дальность видимости в метрах или километрах. При видимости от 1 до 10 км при отсутствии осадков обычно наблюдается дымка, при ухудшении видимости до 1 км и менее - туман. В сухую погоду видимость может ухудшаться дымом, пылью или мглою.
Явления - указаны атмосферные явления, наблюдавшиеся в срок или в последний час перед сроком; фигурными скобками обозначены явления, наблюдавшиеся между сроками (за 1-3 часа до срока); квадратными скобками обозначены град или гололедные отложения с указанием их диаметра в мм.
Облачность - указаны через наклонную черту общая и нижняя облачность в баллах и высота нижней границы облаков в метрах; квадратными скобками обозначены формы облаков: Ci - перистые, Cs - перисто-слоистые, Cc - перисто-кучевые, Ac - высококучевые, As - высокослоистые, Sc - слоисто-кучевые, Ns - слоисто-дождевые, Cu - кучевые, Cb - кучево-дождевые. Подробнее классификацию облаков см. в Атласе облаков (PDF).
T - Температура воздуха - температура, измеренная на высоте 2 м над землей.
Td - Температура точки росы - температура, при понижении до которой содержащийся в воздухе водяной пар достигнет насыщения.
f - Относительная влажность воздуха - влажноcть воздуха, измеренная на высоте 2 м над землей.
Te - Эффективная температура - температура, которую ощущает одетый по сезону человек в тени. Характеристика душности погоды. При расчете учитывается влияние влажности воздуха и скорости ветра на теплоощущения человека.
Tes - Эффективная температура на солнце - температура, которую ощущает человек, с поправкой на солнечный нагрев. Характеристика знойности погоды. Зависит от высоты солнца над горизонтом, облачности и скорости ветра. Ночью, в пасмурную погоду, а также при ветре 12 м/с и более поправка равна нулю.
P - Атмосферное давление - приведенное к уровню моря атмосферное давление.
Po - Атмосферное давление - измеренное на уровне метеостанции атмосферное давление.
Tmin - Минимальная температура - минимум температуры воздуха на высоте 2 м над землей.
Tmax - Максимальная температура - максимум температуры воздуха на высоте 2 м над землей.
R - Количество осадков - Количество выпавших осадков, мм. При наведении курсора мыши на число - период времени, за который выпало указанное количество осадков.
S - Снежный покров - Высота снежного покрова, см. При наведении курсора мыши на число - состояние снежного покрова и степень покрытия местности в баллах.